Time,TemperatureF,DewpointF,PressureIn,WindDirection,WindDirectionDegrees,WindSpeedMPH,WindSpeedGustMPH,Humidity,HourlyPrecipIn,Conditions,Clouds,dailyrainin,SoftwareType,DateUTC
2013-06-11 00:02:00,70.0,59.0,29.80,WSW,252,0.0,1.0,67,0.00,,,0.22,,2013-06-11 05:02:00,
2013-06-11 00:12:00,70.0,59.0,29.80,WSW,252,0.0,1.0,67,0.00,,,0.22,,2013-06-11 05:12:00,
2013-06-11 00:22:00,69.0,58.0,29.81,WSW,252,0.0,1.0,69,0.00,,,0.22,,2013-06-11 05:22:00,
2013-06-11 00:32:00,68.0,58.0,29.81,WSW,252,0.0,1.0,71,0.00,,,0.22,,2013-06-11 05:32:00,
2013-06-11 00:42:00,68.0,58.0,29.81,WSW,252,0.0,1.0,71,0.00,,,0.22,,2013-06-11 05:42:00,
2013-06-11 00:52:00,67.0,58.0,29.82,WSW,252,0.0,1.0,73,0.00,,,0.06,,2013-06-11 05:52:00,
2013-06-11 01:02:00,67.0,58.0,29.82,WSW,252,0.0,1.0,74,0.00,,,0.01,,2013-06-11 06:02:00,
2013-06-11 01:12:00,67.0,58.0,29.82,WSW,252,0.0,1.0,74,0.00,,,0.01,,2013-06-11 06:12:00,
2013-06-11 01:22:00,66.0,58.0,29.82,WSW,252,0.0,1.0,75,0.00,,,0.01,,2013-06-11 06:22:00,
2013-06-11 01:32:00,66.0,58.0,29.82,WSW,252,0.0,0.0,76,0.00,,,0.01,,2013-06-11 06:32:00,
2013-06-11 01:42:00,65.0,58.0,29.82,WSW,252,0.0,1.0,78,0.00,,,0.01,,2013-06-11 06:42:00,
2013-06-11 01:52:00,65.0,58.0,29.82,WSW,252,0.0,1.0,78,0.00,,,0.01,,2013-06-11 06:52:00,
2013-06-11 02:02:00,65.0,58.0,29.82,WSW,252,0.0,0.0,78,0.00,,,0.01,,2013-06-11 07:02:00,
2013-06-11 02:12:00,64.0,58.0,29.82,WSW,252,0.0,1.0,80,0.00,,,0.01,,2013-06-11 07:12:00,
2013-06-11 02:22:00,64.0,58.0,29.82,WSW,252,0.0,1.0,80,0.00,,,0.01,,2013-06-11 07:22:00,
2013-06-11 02:32:00,64.0,58.0,29.83,WSW,252,0.0,1.0,80,0.00,,,0.01,,2013-06-11 07:32:00,
2013-06-11 02:42:00,64.0,58.0,29.83,WSW,254,0.0,1.0,81,0.00,,,0.01,,2013-06-11 07:42:00,
2013-06-11 02:52:00,64.0,58.0,29.83,WSW,254,0.0,1.0,81,0.00,,,0.01,,2013-06-11 07:52:00,
2013-06-11 03:02:00,63.0,57.0,29.83,WSW,254,0.0,1.0,81,0.00,,,0.01,,2013-06-11 08:02:00,
2013-06-11 03:12:00,63.0,57.0,29.83,WSW,254,0.0,1.0,81,0.00,,,0.01,,2013-06-11 08:12:00,
2013-06-11 03:22:00,63.0,57.0,29.83,WSW,254,0.0,1.0,82,0.00,,,0.01,,2013-06-11 08:22:00,
2013-06-11 03:32:00,63.0,57.0,29.84,WSW,254,0.0,1.0,82,0.00,,,0.01,,2013-06-11 08:32:00,
2013-06-11 03:42:00,63.0,58.0,29.85,WSW,254,0.0,1.0,83,0.00,,,0.01,,2013-06-11 08:42:00,
2013-06-11 03:52:00,63.0,58.0,29.85,WSW,254,0.0,1.0,83,0.00,,,0.01,,2013-06-11 08:52:00,
2013-06-11 04:02:00,62.0,57.0,29.85,WSW,254,0.0,1.0,83,0.00,,,0.01,,2013-06-11 09:02:00,
2013-06-11 04:12:00,62.0,57.0,29.85,WSW,254,0.0,1.0,83,0.00,,,0.01,,2013-06-11 09:12:00,
2013-06-11 04:22:00,62.0,57.0,29.85,WSW,254,0.0,1.0,84,0.00,,,0.01,,2013-06-11 09:22:00,
2013-06-11 04:33:00,62.0,57.0,29.85,WSW,254,0.0,3.0,84,0.00,,,0.01,,2013-06-11 09:33:00,
2013-06-11 04:43:00,62.0,57.0,29.86,WSW,254,0.0,1.0,85,0.00,,,0.01,,2013-06-11 09:43:00,
2013-06-11 04:53:00,62.0,57.0,29.86,WSW,254,0.0,1.0,85,0.00,,,0.01,,2013-06-11 09:53:00,
2013-06-11 05:03:00,62.0,57.0,29.86,WSW,254,0.0,1.0,85,0.00,,,0.01,,2013-06-11 10:03:00,
2013-06-11 05:12:00,62.0,57.0,29.86,WSW,254,0.0,1.0,85,0.00,,,0.01,,2013-06-11 10:12:00,
2013-06-11 05:22:00,61.0,57.0,29.87,WSW,254,0.0,1.0,86,0.00,,,0.01,,2013-06-11 10:22:00,
2013-06-11 05:33:00,61.0,57.0,29.86,WSW,254,0.0,0.0,86,0.00,,,0.01,,2013-06-11 10:33:00,
2013-06-11 05:42:00,61.0,57.0,29.86,WSW,254,0.0,0.0,86,0.00,,,0.01,,2013-06-11 10:42:00,
2013-06-11 05:52:00,61.0,57.0,29.86,WSW,254,0.0,0.0,87,0.00,,,0.00,,2013-06-11 10:52:00,
2013-06-11 06:02:00,60.0,56.0,29.86,WSW,254,0.0,0.0,87,0.00,,,0.00,,2013-06-11 11:02:00,
2013-06-11 06:12:00,60.0,56.0,29.86,WSW,254,0.0,0.0,87,0.00,,,0.00,,2013-06-11 11:12:00,
2013-06-11 06:22:00,61.0,57.0,29.87,WSW,254,0.0,0.0,88,0.00,,,0.00,,2013-06-11 11:22:00,
2013-06-11 06:32:00,61.0,57.0,29.88,WSW,254,0.0,0.0,87,0.00,,,0.00,,2013-06-11 11:32:00,
2013-06-11 06:42:00,61.0,57.0,29.88,WSW,254,0.0,0.0,87,0.00,,,0.00,,2013-06-11 11:42:00,
2013-06-11 06:52:00,62.0,58.0,29.88,WSW,254,0.0,0.0,87,0.00,,,0.00,,2013-06-11 11:52:00,
2013-06-11 07:02:00,62.0,58.0,29.88,WSW,254,0.0,0.0,87,0.00,,,0.00,,2013-06-11 12:02:00,
2013-06-11 07:12:00,64.0,60.0,29.88,WSW,254,0.0,1.0,87,0.00,,,0.00,,2013-06-11 12:12:00,
2013-06-11 07:22:00,64.0,60.0,29.88,WSW,254,0.0,1.0,87,0.00,,,0.00,,2013-06-11 12:22:00,
2013-06-11 07:32:00,65.0,61.0,29.88,WSW,254,0.0,1.0,86,0.00,,,0.00,,2013-06-11 12:32:00,
2013-06-11 07:42:00,66.0,61.0,29.88,WSW,254,0.0,1.0,83,0.00,,,0.00,,2013-06-11 12:42:00,
2013-06-11 07:52:00,66.0,61.0,29.88,WSW,254,0.0,1.0,83,0.00,,,0.00,,2013-06-11 12:52:00,
2013-06-11 08:02:00,67.0,61.0,29.88,WSW,254,0.0,1.0,82,0.00,,,0.00,,2013-06-11 13:02:00,
2013-06-11 08:12:00,67.0,61.0,29.88,WSW,254,0.0,1.0,82,0.00,,,0.00,,2013-06-11 13:12:00,
2013-06-11 08:22:00,69.0,62.0,29.89,SSE,152,0.0,3.0,79,0.00,,,0.00,,2013-06-11 13:22:00,
2013-06-11 08:32:00,69.0,62.0,29.89,SSE,152,0.0,1.0,78,0.00,,,0.00,,2013-06-11 13:32:00,
2013-06-11 08:42:00,69.0,62.0,29.89,SSE,152,0.0,1.0,78,0.00,,,0.00,,2013-06-11 13:42:00,
2013-06-11 08:52:00,71.0,63.0,29.89,WNW,300,0.0,3.0,75,0.00,,,0.00,,2013-06-11 13:52:00,
2013-06-11 09:02:00,72.0,63.0,29.89,WNW,298,0.0,3.0,74,0.00,,,0.00,,2013-06-11 14:02:00,
2013-06-11 09:12:00,72.0,63.0,29.89,WNW,298,0.0,3.0,74,0.00,,,0.00,,2013-06-11 14:12:00,
2013-06-11 09:22:00,73.0,63.0,29.89,WNW,298,2.0,6.0,70,0.00,,,0.00,,2013-06-11 14:22:00,
2013-06-11 09:32:00,74.0,63.0,29.89,WNW,303,5.0,6.0,68,0.00,,,0.00,,2013-06-11 14:32:00,
2013-06-11 09:42:00,74.0,63.0,29.89,WNW,303,5.0,6.0,68,0.00,,,0.00,,2013-06-11 14:42:00,
2013-06-11 09:53:00,76.0,63.0,29.88,SE,142,0.0,5.0,64,0.00,,,0.00,,2013-06-11 14:53:00,
2013-06-11 10:02:00,77.0,63.0,29.85,NE,53,1.0,5.0,62,0.00,,,0.00,,2013-06-11 15:02:00,
2013-06-11 10:12:00,78.0,62.0,29.85,SE,132,0.0,8.0,59,0.00,,,0.00,,2013-06-11 15:12:00,
2013-06-11 10:22:00,78.0,62.0,29.85,SE,132,0.0,8.0,59,0.00,,,0.00,,2013-06-11 15:22:00,
2013-06-11 10:33:00,78.0,62.0,29.85,SSE,147,0.0,8.0,59,0.00,,,0.00,,2013-06-11 15:33:00,
2013-06-11 10:42:00,78.0,62.0,29.85,SSE,147,0.0,8.0,59,0.00,,,0.00,,2013-06-11 15:42:00,
2013-06-11 10:53:00,79.0,62.0,29.86,SE,131,3.0,6.0,56,0.00,,,0.00,,2013-06-11 15:53:00,
2013-06-11 11:02:00,79.0,62.0,29.86,South,182,1.0,8.0,57,0.00,,,0.00,,2013-06-11 16:02:00,
2013-06-11 11:12:00,79.0,62.0,29.86,South,182,1.0,8.0,57,0.00,,,0.00,,2013-06-11 16:12:00,
2013-06-11 11:22:00,80.0,63.0,29.86,SSE,160,1.0,6.0,56,0.00,,,0.00,,2013-06-11 16:22:00,
2013-06-11 11:32:00,81.0,62.0,29.86,ESE,121,2.0,5.0,53,0.00,,,0.00,,2013-06-11 16:32:00,
2013-06-11 11:42:00,82.0,62.0,29.86,SE,129,4.0,8.0,51,0.00,,,0.00,,2013-06-11 16:42:00,
2013-06-11 11:52:00,82.0,62.0,29.86,SE,129,4.0,8.0,51,0.00,,,0.00,,2013-06-11 16:52:00,
2013-06-11 12:02:00,82.0,62.0,29.86,ESE,122,3.0,10.0,51,0.00,,,0.00,,2013-06-11 17:02:00,
2013-06-11 12:12:00,82.0,62.0,29.86,ESE,122,3.0,10.0,51,0.00,,,0.00,,2013-06-11 17:12:00,
2013-06-11 12:22:00,81.0,61.0,29.86,SE,127,5.0,10.0,50,0.00,,,0.00,,2013-06-11 17:22:00,
2013-06-11 12:32:00,82.0,61.0,29.85,SW,234,6.0,10.0,49,0.00,,,0.00,,2013-06-11 17:32:00,
2013-06-11 12:43:00,84.0,63.0,29.85,SSE,162,3.0,6.0,49,0.00,,,0.00,,2013-06-11 17:43:00,
2013-06-11 12:52:00,84.0,63.0,29.85,SSE,162,3.0,6.0,49,0.00,,,0.00,,2013-06-11 17:52:00,
2013-06-11 13:02:00,84.0,60.0,29.84,ESE,123,3.0,6.0,45,0.00,,,0.00,,2013-06-11 18:02:00,
2013-06-11 13:12:00,84.0,60.0,29.84,ESE,123,3.0,6.0,45,0.00,,,0.00,,2013-06-11 18:12:00,
2013-06-11 13:22:00,84.0,60.0,29.84,WSW,246,2.0,8.0,45,0.00,,,0.00,,2013-06-11 18:22:00,
2013-06-11 13:32:00,84.0,60.0,29.83,ESE,123,5.0,14.0,44,0.00,,,0.00,,2013-06-11 18:32:00,
2013-06-11 13:42:00,84.0,60.0,29.83,ESE,123,5.0,14.0,44,0.00,,,0.00,,2013-06-11 18:42:00,
2013-06-11 13:52:00,85.0,61.0,29.83,SSW,203,5.0,8.0,44,0.00,,,0.00,,2013-06-11 18:52:00,
2013-06-11 14:02:00,85.0,61.0,29.82,South,172,2.0,8.0,45,0.00,,,0.00,,2013-06-11 19:02:00,
2013-06-11 14:12:00,85.0,61.0,29.82,South,172,2.0,8.0,45,0.00,,,0.00,,2013-06-11 19:12:00,
2013-06-11 14:22:00,85.0,59.0,29.81,SSE,155,4.0,10.0,42,0.00,,,0.00,,2013-06-11 19:22:00,
2013-06-11 14:32:00,85.0,61.0,29.81,SE,129,3.0,5.0,44,0.00,,,0.00,,2013-06-11 19:32:00,
2013-06-11 14:42:00,85.0,61.0,29.81,SE,129,3.0,5.0,44,0.00,,,0.00,,2013-06-11 19:42:00,
2013-06-11 14:52:00,85.0,61.0,29.83,SSE,157,2.0,9.0,45,0.00,,,0.00,,2013-06-11 19:52:00,
2013-06-11 15:02:00,84.0,62.0,29.85,SE,142,1.0,9.0,47,0.00,,,0.00,,2013-06-11 20:02:00,
2013-06-11 15:12:00,84.0,62.0,29.85,SE,142,1.0,9.0,47,0.00,,,0.00,,2013-06-11 20:12:00,
2013-06-11 15:22:00,83.0,62.0,29.84,SE,142,2.0,9.0,50,0.00,,,0.00,,2013-06-11 20:22:00,
2013-06-11 15:32:00,83.0,63.0,29.83,SW,222,1.0,3.0,51,0.00,,,0.00,,2013-06-11 20:32:00,
2013-06-11 15:42:00,83.0,63.0,29.83,SW,222,1.0,3.0,51,0.00,,,0.00,,2013-06-11 20:42:00,
2013-06-11 15:52:00,83.0,66.0,29.81,NE,48,0.0,8.0,56,0.00,,,0.00,,2013-06-11 20:52:00,
2013-06-11 16:02:00,83.0,66.0,29.80,SE,129,1.0,8.0,56,0.00,,,0.00,,2013-06-11 21:02:00,
2013-06-11 16:12:00,83.0,66.0,29.80,SE,129,1.0,8.0,56,0.00,,,0.00,,2013-06-11 21:12:00,
2013-06-11 16:22:00,83.0,67.0,29.78,ESE,112,1.0,8.0,58,0.00,,,0.00,,2013-06-11 21:22:00,
2013-06-11 16:33:00,82.0,66.0,29.77,SSW,201,3.0,9.0,58,0.00,,,0.00,,2013-06-11 21:33:00,
2013-06-11 16:42:00,82.0,66.0,29.77,SSW,201,3.0,9.0,58,0.00,,,0.00,,2013-06-11 21:42:00,
2013-06-11 16:53:00,83.0,66.0,29.77,ESE,118,2.0,10.0,57,0.00,,,0.00,,2013-06-11 21:53:00,
2013-06-11 17:03:00,82.0,66.0,29.77,ESE,114,3.0,14.0,59,0.00,,,0.00,,2013-06-11 22:03:00,
2013-06-11 17:12:00,82.0,66.0,29.77,ESE,114,3.0,14.0,59,0.00,,,0.00,,2013-06-11 22:12:00,
2013-06-11 17:22:00,82.0,67.0,29.77,ESE,104,2.0,12.0,60,0.00,,,0.00,,2013-06-11 22:22:00,
2013-06-11 17:32:00,82.0,67.0,29.77,ESE,103,0.0,5.0,60,0.00,,,0.00,,2013-06-11 22:32:00,
2013-06-11 17:42:00,82.0,67.0,29.77,ESE,103,0.0,5.0,60,0.00,,,0.00,,2013-06-11 22:42:00,
2013-06-11 17:52:00,83.0,68.0,29.81,SSE,157,1.0,5.0,61,0.00,,,0.00,,2013-06-11 22:52:00,
2013-06-11 18:02:00,83.0,67.0,29.81,SSE,165,3.0,14.0,59,0.00,,,0.00,,2013-06-11 23:02:00,
2013-06-11 18:12:00,83.0,67.0,29.81,SSE,165,3.0,14.0,59,0.00,,,0.00,,2013-06-11 23:12:00,
2013-06-11 18:22:00,82.0,67.0,29.81,SE,128,1.0,9.0,61,0.00,,,0.00,,2013-06-11 23:22:00,
2013-06-11 18:32:00,81.0,67.0,29.82,SE,128,0.0,1.0,63,0.00,,,0.00,,2013-06-11 23:32:00,
2013-06-11 18:42:00,80.0,68.0,29.79,ESE,107,0.0,5.0,66,0.00,,,0.00,,2013-06-11 23:42:00,
2013-06-11 18:52:00,80.0,68.0,29.79,ESE,107,0.0,5.0,66,0.00,,,0.00,,2013-06-11 23:52:00,
2013-06-11 19:02:00,80.0,68.0,29.79,ESE,107,0.0,1.0,66,0.00,,,0.00,,2013-06-12 00:02:00,
2013-06-11 19:12:00,81.0,69.0,29.79,ESE,107,0.0,3.0,66,0.00,,,0.00,,2013-06-12 00:12:00,
2013-06-11 19:22:00,81.0,69.0,29.79,ESE,107,0.0,3.0,66,0.00,,,0.00,,2013-06-12 00:22:00,
2013-06-11 19:32:00,81.0,68.0,29.79,ESE,111,1.0,3.0,65,0.00,,,0.00,,2013-06-12 00:32:00,
2013-06-11 19:42:00,81.0,68.0,29.79,ESE,111,1.0,3.0,65,0.00,,,0.00,,2013-06-12 00:42:00,
2013-06-11 19:52:00,80.0,68.0,29.78,South,190,1.0,5.0,66,0.00,,,0.00,,2013-06-12 00:52:00,
2013-06-11 20:02:00,80.0,68.0,29.78,SSE,165,0.0,3.0,67,0.00,,,0.00,,2013-06-12 01:02:00,
2013-06-11 20:12:00,80.0,68.0,29.78,SSE,165,0.0,3.0,67,0.00,,,0.00,,2013-06-12 01:12:00,
2013-06-11 20:22:00,80.0,68.0,29.78,SSE,165,0.0,3.0,67,0.00,,,0.00,,2013-06-12 01:22:00,
2013-06-11 20:32:00,79.0,68.0,29.78,SSE,165,0.0,1.0,69,0.00,,,0.00,,2013-06-12 01:32:00,
2013-06-11 20:42:00,79.0,68.0,29.78,SSE,165,0.0,1.0,69,0.00,,,0.00,,2013-06-12 01:42:00,
2013-06-11 20:52:00,78.0,68.0,29.76,SSE,165,1.0,3.0,71,0.00,,,0.00,,2013-06-12 01:52:00,
2013-06-11 21:02:00,78.0,68.0,29.76,SSE,159,0.0,5.0,72,0.00,,,0.00,,2013-06-12 02:02:00,
2013-06-11 21:12:00,78.0,68.0,29.76,SSE,159,0.0,5.0,72,0.00,,,0.00,,2013-06-12 02:12:00,
2013-06-11 21:22:00,77.0,68.0,29.77,SSE,159,0.0,1.0,73,0.00,,,0.00,,2013-06-12 02:22:00,
2013-06-11 21:32:00,77.0,68.0,29.77,SSE,159,0.0,0.0,74,0.00,,,0.00,,2013-06-12 02:32:00,
2013-06-11 21:42:00,76.0,67.0,29.77,SSE,159,0.0,1.0,75,0.00,,,0.00,,2013-06-12 02:42:00,
2013-06-11 21:52:00,76.0,67.0,29.77,SSE,159,0.0,1.0,75,0.00,,,0.00,,2013-06-12 02:52:00,
2013-06-11 22:02:00,76.0,68.0,29.77,SSE,159,0.0,1.0,76,0.00,,,0.00,,2013-06-12 03:02:00,
2013-06-11 22:12:00,76.0,68.0,29.78,SSE,159,0.0,1.0,77,0.00,,,0.00,,2013-06-12 03:12:00,
2013-06-11 22:22:00,76.0,68.0,29.78,SSE,159,0.0,1.0,77,0.00,,,0.00,,2013-06-12 03:22:00,
2013-06-11 22:32:00,75.0,68.0,29.78,SSE,159,0.0,0.0,78,0.00,,,0.00,,2013-06-12 03:32:00,
2013-06-11 22:42:00,75.0,68.0,29.78,SSE,159,0.0,0.0,78,0.00,,,0.00,,2013-06-12 03:42:00,
2013-06-11 22:53:00,75.0,68.0,29.78,SSE,159,0.0,1.0,78,0.00,,,0.00,,2013-06-12 03:53:00,
2013-06-11 23:03:00,75.0,68.0,29.78,SSE,159,0.0,1.0,79,0.00,,,0.00,,2013-06-12 04:03:00,
2013-06-11 23:13:00,75.0,68.0,29.78,SSE,159,0.0,1.0,79,0.00,,,0.00,,2013-06-12 04:13:00,
2013-06-11 23:23:00,74.0,67.0,29.78,SSE,159,0.0,0.0,80,0.00,,,0.00,,2013-06-12 04:23:00,
2013-06-11 23:33:00,74.0,68.0,29.78,SSE,159,0.0,0.0,81,0.00,,,0.00,,2013-06-12 04:33:00,
2013-06-11 23:42:00,74.0,68.0,29.78,SSE,159,0.0,1.0,81,0.00,,,0.00,,2013-06-12 04:42:00,
2013-06-11 23:52:00,74.0,68.0,29.78,SSE,159,0.0,1.0,81,0.00,,,0.00,,2013-06-12 04:52:00,